Wind_Speed
17 17 17 17 17 17 17 17 17 16 16 15 15 15 14 14 14 13 13 12 12 11 11 10 10 10 10 10 9 9 9 8 8 8 8 8 8 8 8 8 8 8 8 8 8 8 7 6 6 5 5 5 5 5 5 5 5 5 5 5 5 5 7 8 9 10 11 13 12 10 9 8 10 10 8 10 11 11 12 13 11 10 10 9 9 9 10 10
17 17 17 17 17 17 16 16 16 16 16 15 15 15 15 15 14 14 13 13 12 12 11 11 11 10 10 9 9 9 8 8 9 9 9 8 8 8 8 8 8 8 8 7 7 7 7 7 6 6 6 6 5 5 5 5 5 5 5 5 5 7 11 11 10 11 11 10 10 10 10 10 11 11 9 9 11 11 11 13 11 10 10 10 10 10 10 10
17 17 17 17 17 17 17 17 17 17 17 17 17 17 16 15 15 15 14 13 12 12 12 11 11 10 10 9 9 9 8 8 9 9 9 9 9 8 8 8 8 7 7 7 8 8 8 7 7 6 6 6 5 5 5 5 4 5 4 3 7 10 11 11 9 9 9 9 10 10 10 11 12 12 11 10 11 11 11 14 14 12 11 11 11 10 10 9
18 18 18 18 18 18 19 19 18 18 18 18 18 18 17 16 15 15 14 13 12 12 12 11 11 10 9 9 9 8 8 8 9 9 9 9 9 9 8 8 8 8 8 8 8 8 8 7 7 6 6 6 5 5 5 5 5 5 5 5 8 9 9 10 9 8 9 9 10 11 11 12 13 11 12 13 10 9 12 14 15 15 13 12 13 12 11 10
19 19 19 20 20 20 20 20 20 20 20 19 19 18 18 17 16 15 14 13 12 11 11 10 10 9 9 9 8 8 7 6 9 10 10 10 10 9 9 8 8 8 8 8 8 8 7 6 6 5 5 6 5 5 6 6 5 6 7 8 9 9 10 10 9 9 9 10 11 12 13 13 13 12 12 14 12 10 14 15 15 16 15 14 14 13 12 11
20 21 21 22 22 23 22 22 22 21 20 20 19 19 18 17 16 15 13 13 12 11 10 10 10 9 9 9 8 9 7 7 8 9 10 10 10 10 10 10 10 10 9 9 8 7 7 6 5 5 5 6 6 7 7 7 6 5 8 10 10 10 11 10 10 10 10 11 13 13 14 14 14 14 13 14 14 14 16 16 16 16 16 16 15 14 12 11
20 20 21 22 23 23 23 23 22 22 21 21 20 19 19 17 16 15 14 12 12 11 11 11 11 10 10 9 9 9 10 11 10 9 10 11 11 12 11 11 11 10 10 9 9 8 7 6 6 6 6 6 8 9 9 9 8 7 10 11 10 12 12 12 12 12 12 13 14 14 15 15 16 16 14 15 15 15 16 16 16 16 17 17 16 14 13 12
20 20 21 21 22 23 23 23 22 22 22 21 21 20 19 18 17 15 14 13 13 12 12 12 11 11 10 9 9 10 11 13 13 11 10 11 12 12 12 12 11 11 10 10 9 8 8 8 8 7 7 8 9 10 10 9 10 11 13 13 12 13 14 14 14 13 14 14 14 15 15 16 17 17 16 16 15 16 17 16 16 17 17 17 16 15 14 13
20 20 20 21 22 23 23 23 22 22 22 22 21 21 20 19 17 16 15 14 14 13 13 12 12 11 10 10 10 10 12 13 14 13 12 11 13 13 13 12 12 12 11 11 10 10 10 9 9 9 10 10 10 11 11 9 10 12 13 13 13 14 15 15 15 14 14 15 15 16 16 18 18 18 18 16 15 16 17 17 17 18 18 17 17 17 16 15
21 20 20 22 22 23 23 24 24 23 23 23 22 22 21 20 19 17 17 16 15 15 14 13 13 12 11 11 10 11 13 13 14 14 14 14 14 14 14 13 13 13 12 12 12 12 11 11 11 11 11 12 12 13 13 11 13 15 14 15 15 16 16 15 15 15 15 16 17 17 18 19 19 19 19 17 15 17 17 17 18 18 18 18 18 18 18 17
23 22 21 22 23 24 24 24 24 24 24 23 23 23 22 21 20 19 18 17 17 16 15 14 14 13 13 13 12 13 14 13 14 15 15 16 16 15 15 15 14 14 14 14 13 13 13 13 12 12 13 13 13 13 14 14 15 16 16 16 17 17 17 16 16 16 17 17 17 17 18 21 20 20 20 18 16 18 18 18 18 18 19 18 18 18 18 18
24 24 23 22 23 24 25 25 25 25 25 24 24 24 23 22 22 21 20 19 18 17 17 16 15 15 14 15 14 15 15 15 15 16 16 17 16 17 16 16 16 15 15 15 15 15 14 14 14 14 14 13 14 14 14 14 14 15 15 15 17 18 17 17 16 16 17 18 17 16 18 21 21 20 20 18 19 20 19 19 19 20 20 19 19 19 19 19
26 25 24 24 23 24 25 26 26 26 26 26 26 25 25 24 24 23 22 21 20 19 18 17 17 16 16 17 16 16 17 17 17 17 17 18 18 18 17 17 17 17 17 16 16 16 15 15 15 15 15 15 17 16 15 15 15 15 17 17 17 16 15 18 18 16 17 18 17 16 17 18 16 17 18 17 17 18 19 20 20 20 21 21 20 21 20 20
29 27 27 26 25 24 25 25 27 27 27 27 27 27 26 26 25 25 24 23 22 21 20 19 18 18 18 19 17 17 18 18 19 19 19 19 19 19 18 18 18 18 18 18 17 17 17 16 16 17 17 17 18 17 17 18 17 16 18 18 17 14 13 17 18 16 16 16 15 15 17 17 15 18 19 18 17 18 19 20 20 21 21 21 21 21 22 21
32 30 29 28 27 26 25 25 27 27 28 29 29 28 28 28 27 26 25 25 23 22 21 20 20 19 21 21 19 19 19 19 19 20 21 21 20 20 20 19 20 20 19 19 19 19 19 18 18 19 18 18 18 17 17 18 18 18 17 13 12 12 11 15 20 18 17 17 16 15 15 14 16 21 21 19 19 19 20 21 20 21 21 22 22 22 22 22
34 33 31 30 29 28 27 27 27 27 28 29 30 30 29 29 29 28 27 26 25 24 23 22 21 21 23 22 21 20 20 20 20 21 22 22 22 21 21 21 21 21 21 21 21 21 20 20 20 20 20 19 18 18 15 14 15 17 18 13 11 12 10 13 20 21 19 18 17 17 15 11 15 21 22 20 19 19 21 22 21 22 22 23 23 23 23 23
37 35 34 32 31 30 30 29 28 28 28 29 30 30 31 31 30 30 29 28 27 26 25 24 23 23 25 23 21 19 19 19 21 22 23 23 23 23 22 22 22 22 22 23 23 23 22 21 21 20 21 20 19 18 13 11 12 12 15 14 12 14 13 13 16 20 19 17 17 18 20 18 18 24 24 22 22 23 24 24 24 24 25 25 24 25 25 25
39 38 36 35 34 33 32 31 30 29 29 30 31 31 32 32 31 31 31 30 29 28 27 26 25 25 25 23 22 20 19 20 21 22 23 24 24 24 24 24 24 24 24 24 25 24 23 22 21 20 22 23 21 19 17 14 10 10 10 10 11 12 14 13 14 20 21 19 19 19 22 23 22 25 28 26 26 27 27 28 28 27 27 27 27 27 27 28
41 40 39 38 36 35 34 33 32 31 31 32 31 32 32 33 33 33 33 32 32 29 28 27 26 25 24 22 22 20 20 21 22 22 22 23 24 24 25 25 25 24 25 24 24 24 22 23 22 22 25 25 23 22 21 17 14 15 16 15 14 13 14 14 16 24 24 22 23 23 24 25 22 23 28 29 29 29 29 30 31 30 29 29 28 28 29 29
44 42 42 40 39 38 37 35 34 33 34 33 33 32 33 34 34 34 34 34 33 31 30 30 28 27 26 25 23 22 22 22 22 22 22 22 23 24 24 24 24 24 25 25 25 25 23 24 26 26 25 23 22 23 20 18 19 21 21 20 20 18 18 17 20 28 27 23 26 25 26 28 27 25 26 31 34 32 30 32 32 31 30 29 28 28 28 28
45 44 44 43 41 40 39 37 36 35 36 35 34 34 34 34 33 34 35 34 33 33 33 34 33 32 32 29 27 26 25 24 23 22 21 22 22 23 24 25 25 26 27 26 27 27 24 27 28 25 22 21 22 25 22 21 23 22 22 22 20 19 20 19 24 31 27 25 28 27 28 32 33 30 27 32 38 35 32 32 33 32 31 29 28 28 27 25
45 45 45 44 43 42 41 39 38 38 38 37 36 35 34 33 33 34 34 34 36 36 35 36 36 35 34 32 31 29 29 28 27 25 23 23 22 22 22 22 23 24 25 26 25 25 26 31 29 23 24 25 25 25 23 23 23 23 25 25 22 22 21 20 25 29 25 25 26 26 30 34 34 34 31 33 37 36 33 33 33 32 31 29 28 27 26 24
46 46 45 45 44 42 42 41 40 40 39 39 37 35 34 33 33 34 34 35 38 38 37 38 37 36 36 35 32 31 31 31 30 29 27 26 25 25 24 24 24 24 27 28 26 27 29 30 27 23 25 26 24 24 24 25 26 26 27 25 24 24 21 19 20 23 23 24 26 27 33 39 40 38 34 33 37 35 33 33 34 33 31 29 28 26 24 23
46 46 45 45 44 44 43 41 42 41 40 40 37 35 34 34 33 33 33 35 40 43 41 39 39 39 38 36 34 33 33 32 32 33 31 29 28 28 29 29 27 29 32 31 29 30 29 28 28 25 24 23 22 23 23 23 25 27 28 27 27 25 22 19 18 24 28 28 30 29 30 36 37 32 27 27 29 29 27 29 32 33 31 30 28 26 24 23
44 44 45 45 44 45 43 43 44 41 40 39 36 35 34 34 33 32 32 33 39 44 44 43 42 41 41 39 36 35 35 35 35 35 32 30 30 30 31 31 30 32 34 31 31 32 30 30 32 31 31 29 27 27 27 25 24 24 25 27 27 24 22 19 18 24 26 23 24 20 15 18 18 13 14 18 19 19 21 24 27 28 28 28 25 25 25 24
43 43 43 43 44 45 45 47 45 41 40 38 35 35 34 34 32 30 30 28 36 47 47 44 42 41 42 41 39 36 35 39 39 36 33 32 32 32 32 34 34 33 32 30 31 33 33 34 35 34 33 32 31 31 31 30 27 22 21 25 25 24 23 23 22 22 18 13 14 12 9 11 15 14 14 18 19 18 19 20 20 21 21 22 23 23 25 24
45 43 42 41 43 44 46 47 44 42 42 38 36 36 34 33 30 29 25 17 29 45 46 45 43 41 41 39 38 35 35 39 37 35 37 35 34 35 35 36 37 34 33 31 29 32 36 35 34 34 32 32 33 32 31 32 27 22 23 27 27 24 23 23 22 21 18 16 17 18 17 17 24 31 30 30 29 24 22 18 14 14 14 16 19 22 23 23
51 47 45 43 42 42 43 44 43 43 41 38 38 35 33 31 28 26 16 7 17 27 29 36 42 43 41 37 35 35 37 39 35 33 36 35 36 38 37 38 38 36 36 35 32 33 35 33 31 30 28 29 31 31 29 29 26 24 27 29 27 25 23 21 20 19 17 17 17 19 18 15 20 30 31 32 33 27 25 23 18 17 18 18 18 19 20 20
56 55 52 49 46 43 42 44 44 42 40 39 36 33 32 29 26 21 9 8 22 25 20 24 31 35 36 36 36 36 39 39 36 35 33 32 36 39 40 39 38 38 39 39 38 35 35 34 32 29 28 29 30 30 29 26 25 26 26 27 27 26 23 20 18 16 13 15 17 17 17 14 15 19 19 24 30 25 23 26 24 22 22 23 22 20 18 18
55 57 57 56 54 49 46 45 43 40 40 39 35 32 30 27 25 18 8 15 26 24 22 22 24 27 28 30 33 35 37 36 36 35 34 34 35 37 40 40 37 38 40 40 40 40 39 37 35 32 31 32 32 32 29 26 26 25 24 24 22 21 20 18 14 11 10 14 20 21 22 19 12 10 13 21 28 23 21 25 24 22 24 26 25 22 19 18
52 53 54 57 59 57 53 48 43 40 39 38 35 31 30 29 25 15 13 28 28 21 22 22 23 27 26 26 27 28 33 35 36 36 36 37 36 37 39 39 37 36 37 41 41 41 43 41 39 40 39 36 34 33 30 29 27 25 23 19 13 11 11 12 10 10 9 11 14 17 23 23 16 10 7 14 25 23 21 23 23 23 25 26 25 23 20 17
52 51 50 53 55 57 58 53 46 39 37 38 34 33 34 28 23 23 28 31 22 18 23 23 23 25 23 24 24 23 27 30 34 37 37 37 38 40 39 38 39 31 27 36 40 39 41 42 41 40 40 38 35 32 31 31 28 26 22 15 10 7 6 7 7 8 11 11 9 11 16 20 25 24 14 14 22 21 18 20 20 21 23 24 23 20 18 16
51 51 51 52 52 54 56 54 49 40 37 38 33 36 36 23 22 43 48 31 12 11 17 17 21 23 20 24 26 24 25 27 30 32 36 38 38 40 40 38 40 34 22 21 28 30 30 33 37 38 38 37 36 35 33 31 29 29 25 20 15 8 5 8 8 8 11 11 10 12 13 14 19 24 23 22 24 20 17 18 19 20 21 21 21 19 18 16
49 51 53 54 51 51 52 51 50 44 38 37 36 38 35 25 35 55 56 42 25 16 13 12 18 23 24 27 28 26 27 29 31 31 34 37 38 40 42 39 39 40 31 18 18 21 17 16 22 27 28 28 29 31 31 29 28 30 28 24 21 16 11 9 7 7 5 3 8 12 10 8 9 12 17 20 23 23 20 20 20 21 21 22 22 21 18 15
45 48 50 52 52 52 50 47 47 45 41 39 41 43 41 40 53 57 52 48 38 27 18 12 17 25 28 30 28 27 31 32 32 33 34 36 39 40 41 41 40 41 37 25 18 20 19 19 21 23 23 21 20 21 23 25 24 25 25 24 24 24 21 15 11 9 6 4 6 12 11 12 11 11 11 10 16 23 23 21 22 22 24 24 23 21 17 15
43 45 47 51 55 55 52 49 48 46 43 43 46 50 52 57 61 55 47 45 43 39 28 16 18 25 29 32 32 30 32 33 32 33 36 37 40 41 40 41 40 39 39 34 25 20 16 18 25 27 27 25 22 21 23 24 20 17 23 29 31 29 26 17 13 13 11 10 9 13 15 19 17 18 17 13 12 19 22 22 24 26 26 25 24 21 17 15
40 42 45 50 54 55 53 51 50 47 43 47 52 54 60 66 65 56 44 39 44 47 38 26 23 27 30 32 33 33 33 33 33 33 35 35 35 40 43 41 40 38 38 37 33 28 19 14 19 23 23 24 24 21 24 28 26 21 22 28 30 29 28 20 9 8 10 10 10 14 17 18 17 16 19 21 18 19 22 24 28 31 29 25 24 22 19 15
43 41 45 50 51 52 50 45 46 47 44 49 55 55 61 69 69 63 48 38 41 45 41 38 32 27 30 32 32 34 34 34 37 35 33 33 31 35 39 39 39 38 35 33 32 32 28 20 20 24 25 23 22 21 23 28 30 29 27 25 22 18 19 20 12 7 8 8 8 12 17 20 22 19 18 23 24 22 24 27 31 33 30 27 26 23 19 15
44 46 49 52 51 50 48 44 47 50 48 53 56 57 65 70 70 67 56 45 42 39 38 42 38 27 27 32 33 36 36 36 39 38 34 34 34 35 36 33 32 33 33 34 34 34 33 24 17 20 25 23 23 26 28 29 31 34 34 29 25 19 14 18 19 11 8 8 8 10 12 15 22 26 25 27 25 23 25 29 32 33 31 29 27 23 19 14
44 51 51 50 51 51 49 47 51 55 55 58 61 65 70 69 65 65 63 58 52 45 41 41 39 33 31 31 33 37 40 39 41 41 38 38 37 37 36 32 29 28 26 28 33 36 35 29 19 17 20 22 26 30 32 33 34 36 39 35 32 31 22 16 20 21 15 9 7 8 9 11 15 19 23 23 19 20 24 26 30 32 31 30 26 21 16 15
44 53 53 48 47 49 49 50 56 59 58 60 63 68 72 68 62 60 62 64 59 53 49 44 39 36 36 35 34 36 39 40 43 43 43 45 43 39 38 35 31 29 26 26 33 36 35 34 29 24 25 29 33 35 33 33 35 36 40 41 39 40 34 18 15 24 26 18 12 8 9 13 14 12 14 15 15 18 21 24 29 32 31 30 25 18 16 16
42 49 51 46 44 48 50 54 59 60 60 62 63 65 67 65 61 60 60 62 59 55 52 49 44 39 37 39 40 40 41 42 45 46 47 49 49 45 42 37 32 31 29 26 30 34 34 36 35 32 33 35 36 37 34 33 37 37 37 40 39 40 41 29 13 14 23 29 27 17 12 18 20 15 13 15 17 18 21 26 31 34 33 28 21 17 17 18
43 45 47 46 44 47 53 56 58 60 62 63 62 60 60 60 60 60 60 59 60 59 55 54 53 49 42 37 37 40 43 43 44 49 50 48 49 48 44 40 36 33 30 28 30 31 33 36 32 26 27 30 32 37 36 33 34 36 40 42 41 43 44 40 29 16 13 23 24 14 12 20 24 22 18 18 19 20 24 32 36 36 32 24 18 18 19 19
43 43 46 49 44 44 54 60 60 61 64 66 63 60 57 56 58 61 61 62 62 60 57 57 57 55 50 41 37 41 44 42 43 47 48 47 46 45 43 42 41 39 36 35 34 31 31 35 29 16 12 15 18 23 27 32 35 39 44 44 45 48 41 38 41 31 21 26 24 13 13 19 21 21 20 20 22 25 31 37 39 34 28 21 19 20 20 20
43 43 44 46 43 43 54 63 64 63 65 67 65 62 58 55 56 59 58 57 58 59 59 61 59 56 55 52 48 47 47 46 44 40 41 44 45 45 43 42 42 43 41 40 38 34 33 37 34 23 14 12 14 15 22 35 42 45 47 46 47 50 44 42 42 33 28 33 30 25 23 20 18 18 20 23 25 29 36 39 36 30 24 22 20 20 21 21
43 44 44 42 43 46 49 55 61 63 62 64 65 64 61 56 53 54 52 47 49 54 58 61 59 52 51 55 57 54 51 48 43 38 38 41 42 44 44 42 42 42 41 41 40 38 37 39 42 43 39 36 37 34 31 34 37 41 46 48 50 51 50 47 40 36 36 30 31 42 39 25 22 21 23 26 28 31 36 35 30 26 23 21 20 21 23 23
43 45 47 44 45 51 48 46 53 59 60 63 67 67 65 61 53 48 49 51 51 50 50 53 55 52 53 59 62 59 54 48 46 48 49 46 43 41 39 40 41 42 42 42 42 43 43 43 46 50 52 54 54 47 40 37 37 39 41 44 49 50 50 50 47 51 47 28 30 49 44 35 36 31 26 29 30 31 32 29 27 25 22 21 21 23 24 24
42 44 47 46 43 48 51 47 47 53 59 62 66 66 64 62 57 50 49 53 54 52 47 47 53 60 63 64 60 57 52 46 48 55 56 52 49 43 38 38 39 40 42 43 44 48 48 48 50 48 48 54 54 48 46 44 42 40 37 38 43 45 49 55 57 60 52 38 43 51 42 40 47 43 38 34 30 30 30 28 26 24 22 23 24 25 26 26
39 41 43 43 43 45 51 51 47 47 55 62 65 65 62 62 63 62 58 52 49 51 52 52 58 65 66 63 57 54 51 48 51 58 57 52 51 49 46 43 43 43 43 43 46 49 48 50 53 48 45 52 53 49 49 48 45 43 39 38 40 43 49 53 54 56 55 54 59 54 41 41 42 40 42 38 33 33 31 28 27 25 24 26 27 28 28 27
38 40 41 40 41 42 47 53 51 44 46 56 63 65 66 66 68 68 65 58 53 53 54 57 62 64 64 63 58 56 58 59 60 61 56 50 50 53 53 50 50 48 46 46 47 48 48 49 49 44 42 50 56 52 49 48 47 47 45 44 46 47 47 48 49 51 54 60 63 53 46 47 39 31 33 34 35 35 31 29 29 27 28 29 29 30 29 28
39 39 40 40 41 42 42 49 55 51 46 48 55 62 65 65 65 66 64 63 62 58 55 57 62 62 61 60 58 60 64 66 65 61 56 51 51 53 53 52 52 50 49 50 50 51 52 51 51 42 35 47 60 52 46 49 46 45 50 55 56 51 47 47 50 51 53 58 59 53 53 57 49 41 37 34 34 33 31 30 31 31 33 33 32 32 31 31
41 40 40 39 40 42 42 44 51 55 54 48 48 55 59 59 59 59 57 56 59 62 60 58 59 58 56 57 58 61 63 63 61 59 55 53 54 54 52 51 53 53 52 52 52 55 55 53 54 45 33 45 57 45 41 43 30 31 54 66 63 56 50 49 52 53 53 55 54 53 57 60 56 52 48 41 38 37 37 37 37 36 35 33 33 33 32 34
Wind_Direction
186 184 184 182 181 181 181 181 181 182 182 184 188 191 195 199 201 201 200 199 198 199 202 208 212 216 220 222 225 227 227 231 235 236 237 237 236 238 238 240 243 245 248 249 249 247 246 243 238 236 236 240 238 238 237 233 222 210 198 203 224 209 208 214 201 194 204 229 237 236 239 240 251 252 250 264 271 274 283 282 280 288 292 296 291 285 279 280
192 190 189 188 187 189 188 188 188 190 192 195 199 203 205 204 202 200 199 200 202 206 212 218 221 224 228 230 233 234 234 236 237 238 239 237 235 236 238 239 243 247 247 246 248 247 247 245 240 238 238 239 240 236 235 229 217 209 195 208 230 214 216 219 211 204 206 221 226 232 238 238 251 260 264 273 275 283 294 286 285 290 293 296 288 281 276 274
200 199 198 197 196 197 197 197 198 200 204 206 209 208 207 204 202 202 203 206 209 213 219 224 227 230 234 238 240 241 240 240 240 239 238 237 236 236 237 239 240 241 240 241 246 246 247 248 244 240 238 238 237 230 225 218 211 208 188 215 241 229 226 231 228 220 217 221 222 229 237 243 253 264 270 268 275 291 289 281 290 294 295 295 285 279 274 272
209 208 207 205 204 205 206 207 209 211 213 213 211 208 205 205 205 207 209 212 214 218 223 227 230 232 236 240 244 245 245 252 250 240 239 237 235 236 237 236 233 235 236 240 243 245 246 245 241 235 232 233 229 222 216 211 213 212 200 222 237 233 234 237 236 235 232 230 231 233 238 248 253 259 268 270 277 287 277 278 289 292 294 289 282 278 273 273
217 217 216 215 214 214 215 217 218 218 216 213 209 207 207 207 209 212 214 218 220 223 227 231 234 235 238 240 244 247 244 259 254 238 238 236 233 234 232 228 230 234 235 237 239 239 239 235 231 224 220 224 224 224 222 217 225 233 232 236 242 242 243 243 242 245 244 242 242 242 244 249 257 259 263 270 269 258 267 281 284 285 287 281 277 275 274 277
220 222 223 223 223 223 223 223 222 219 214 210 209 209 210 211 213 215 217 221 224 228 231 234 237 237 240 240 241 243 231 235 244 236 233 233 232 230 225 225 230 234 233 233 234 233 233 226 222 216 218 229 231 233 235 233 235 248 249 246 248 251 250 252 252 252 252 251 250 250 251 254 259 261 259 263 263 258 266 276 277 279 279 276 274 271 270 274
221 223 224 225 225 225 224 222 220 217 213 210 211 212 212 214 216 219 221 224 228 230 233 235 238 239 239 239 239 240 233 232 241 240 233 231 230 226 224 228 231 232 230 230 231 231 231 229 230 228 230 242 245 245 248 250 248 252 258 254 253 255 257 260 261 261 259 257 257 255 256 259 259 260 259 258 258 260 265 269 272 274 273 273 272 270 269 270
224 224 224 223 223 222 221 219 217 215 214 213 214 215 216 218 219 222 224 226 230 232 234 236 239 241 240 241 239 239 238 238 240 240 236 231 225 224 229 232 231 229 228 229 230 233 236 237 241 243 243 246 253 256 257 266 264 257 260 262 260 260 262 264 265 266 265 262 261 261 262 262 262 262 259 255 254 258 263 265 267 268 269 271 271 270 271 273
226 226 224 222 220 220 218 217 217 217 217 218 217 218 220 221 223 225 227 229 233 236 238 240 243 244 244 244 242 243 243 240 240 238 235 231 226 230 236 233 228 227 228 230 234 238 242 244 246 250 254 255 259 263 263 268 268 262 264 267 266 264 264 267 267 266 265 264 262 265 268 266 265 266 263 256 255 258 261 264 264 264 266 267 268 268 270 272
228 227 226 224 220 219 218 218 219 219 220 221 221 222 224 225 227 229 231 233 237 240 243 246 248 249 249 248 244 247 246 242 241 239 236 235 235 238 237 232 231 230 231 235 240 244 248 252 253 256 262 265 265 266 268 265 265 269 272 272 271 269 267 266 267 266 264 264 264 266 269 269 266 264 263 261 261 263 264 263 261 262 264 265 265 266 267 270
231 229 228 227 223 221 220 220 220 221 222 224 225 226 227 229 230 232 235 237 241 244 247 250 253 253 254 254 248 247 247 244 243 241 239 238 238 240 237 235 235 234 236 239 244 249 254 257 260 264 266 270 270 269 271 268 267 271 273 274 272 271 271 269 267 268 267 265 266 269 268 268 266 262 263 267 268 266 265 263 262 262 264 266 265 264 267 270
233 232 231 230 228 225 224 224 224 224 224 225 228 229 231 232 233 235 237 240 243 246 250 252 256 256 256 256 252 250 250 247 244 242 242 242 241 241 239 239 239 239 241 244 248 252 258 262 265 267 267 270 273 273 274 272 272 274 273 274 275 277 279 275 270 266 266 267 267 270 270 271 270 267 267 267 266 265 263 262 263 265 267 267 267 267 267 270
233 234 234 233 231 230 229 228 227 228 228 228 229 231 233 235 236 238 239 242 245 248 251 254 257 259 260 259 255 253 252 249 246 244 243 243 243 243 242 241 241 242 245 248 252 256 260 264 266 267 268 270 271 273 275 275 275 276 276 274 277 283 282 277 276 270 265 266 267 265 266 273 277 273 269 265 262 262 259 259 261 265 267 269 269 269 269 270
233 234 235 235 234 233 232 231 231 230 231 231 231 232 234 236 238 239 241 243 245 248 251 254 257 260 262 260 257 255 254 251 249 246 245 245 245 244 244 243 243 245 248 252 255 258 262 265 267 268 268 269 271 274 277 278 277 276 279 281 281 280 273 272 275 274 268 264 263 258 257 267 272 269 270 268 264 260 256 257 260 263 266 268 269 269 270 270
233 234 235 235 235 236 235 235 234 233 233 234 234 234 235 237 239 240 242 244 246 249 252 254 258 261 263 262 259 257 255 253 251 249 247 246 246 246 245 244 245 246 249 253 256 259 263 265 266 268 269 270 272 274 277 281 283 281 278 279 282 277 265 271 274 272 272 270 266 257 256 264 263 262 268 270 265 259 257 257 260 263 266 267 267 267 268 268
233 234 235 235 236 236 236 236 237 236 237 237 237 237 237 238 240 241 243 244 247 249 251 255 257 260 263 263 260 258 256 255 252 249 247 247 247 247 246 245 246 248 251 255 258 260 262 263 265 267 269 270 269 271 276 277 278 279 276 268 266 270 265 272 278 275 272 272 269 260 253 253 257 262 266 269 266 259 259 260 261 264 265 265 266 265 265 266
233 234 235 235 237 238 238 237 237 238 239 239 240 239 240 240 241 242 243 245 246 249 251 254 256 259 261 261 259 259 258 255 251 248 246 246 246 246 246 247 248 250 253 257 259 261 262 262 263 265 265 264 264 268 264 256 260 264 272 274 265 264 265 266 276 277 272 269 270 267 262 259 260 265 268 269 268 265 264 265 265 266 266 266 264 264 264 264
234 234 235 235 237 238 239 239 238 239 239 240 241 241 241 242 242 243 244 245 246 248 251 253 255 258 261 261 260 259 257 255 251 248 246 245 246 247 248 249 250 252 256 258 259 260 261 261 260 260 260 259 260 259 250 251 266 260 261 279 278 269 269 269 269 270 270 270 271 269 268 270 268 270 273 270 266 266 267 267 266 266 267 266 264 263 263 264
236 236 236 236 237 238 239 240 239 240 241 241 241 242 242 243 243 244 245 245 246 247 250 253 253 255 259 261 262 261 257 254 251 248 246 246 246 246 247 248 250 252 255 257 258 257 257 259 257 255 257 262 264 262 260 263 267 261 261 269 274 270 268 269 263 263 270 275 273 268 267 271 270 270 275 275 269 266 266 266 266 265 265 265 263 263 262 263
237 237 237 237 238 239 240 240 240 241 241 242 242 243 244 244 245 246 246 246 247 248 251 253 253 254 256 258 260 261 259 255 251 248 246 245 245 246 246 247 248 249 252 254 257 257 258 258 256 256 260 266 269 269 269 264 259 261 264 268 271 269 266 268 264 268 274 275 274 274 271 272 270 266 271 275 274 270 266 265 266 266 265 263 261 260 259 260
237 238 239 239 239 239 240 240 241 241 242 243 243 244 245 246 247 249 249 249 249 249 250 251 252 254 256 257 258 258 259 257 252 247 245 244 245 246 246 246 248 250 252 253 256 259 257 253 254 261 264 260 262 269 269 262 261 263 264 267 269 267 267 266 265 273 279 277 276 277 274 275 275 272 268 270 273 274 271 268 266 265 263 263 261 259 258 258
238 238 239 240 240 240 241 241 241 241 242 244 244 245 247 248 249 250 252 253 251 248 248 250 251 253 256 257 257 257 257 256 253 248 245 244 244 246 247 245 247 251 252 251 254 258 255 255 259 263 262 260 261 266 267 263 262 263 263 265 264 264 268 268 270 278 281 278 279 279 277 277 278 277 274 271 273 274 272 269 268 267 265 264 263 260 258 256
240 240 240 240 241 241 242 242 242 241 241 243 244 246 249 250 251 252 253 255 254 250 248 249 251 253 255 255 255 256 256 254 254 250 245 245 245 246 247 246 248 252 253 252 254 255 254 259 264 260 260 264 265 262 261 262 262 262 261 260 259 264 267 269 275 280 279 278 280 282 283 282 280 280 278 275 274 274 272 270 268 267 266 264 262 260 257 253
240 241 241 241 242 242 242 243 242 241 241 242 244 246 249 251 252 253 254 256 257 253 249 249 250 252 253 254 254 254 255 254 253 250 245 245 246 247 248 249 251 253 253 255 256 256 255 259 262 259 260 261 261 260 258 259 263 264 263 259 260 264 266 270 273 275 279 283 284 285 287 286 285 285 281 276 276 277 273 267 265 264 263 262 259 256 252 247
240 240 241 242 242 242 242 243 242 241 241 242 243 245 248 250 252 254 254 258 261 257 252 250 251 252 252 252 252 252 254 253 249 248 246 244 245 247 248 248 246 249 253 254 257 257 252 253 257 259 260 259 260 262 261 261 263 266 268 267 268 267 263 265 268 275 283 286 285 286 286 287 289 287 278 275 280 284 276 266 261 260 260 259 255 248 243 239
240 240 241 241 241 242 242 242 242 242 242 242 243 245 247 250 251 251 252 260 265 259 254 252 250 251 250 249 249 250 253 252 249 248 247 244 244 245 246 247 245 245 250 253 254 254 250 250 256 258 260 262 262 262 263 264 262 260 264 267 270 270 264 262 264 271 278 277 276 272 261 277 281 273 267 268 274 281 278 268 259 258 258 255 249 241 237 234
241 240 241 241 241 241 242 242 243 242 242 242 243 244 245 247 247 247 249 263 268 261 256 252 249 248 248 248 248 244 244 249 248 246 244 242 243 243 243 246 247 245 247 247 247 251 253 254 257 260 261 263 262 262 264 265 260 255 258 263 267 270 269 268 266 264 264 267 269 263 261 271 272 270 268 265 268 272 268 257 248 253 255 249 243 237 234 232
241 241 241 242 242 243 244 244 242 240 241 241 241 243 243 242 240 239 239 253 260 258 254 248 246 247 246 246 246 240 240 246 247 245 244 242 241 242 242 243 247 249 248 245 244 252 259 259 259 261 261 261 262 263 264 265 262 258 260 263 265 268 270 270 269 263 262 268 262 255 256 259 266 270 273 273 271 266 257 247 243 252 253 246 240 235 232 229
240 241 242 242 243 244 244 244 241 239 238 237 237 238 236 234 231 225 218 243 246 248 246 239 239 242 243 241 241 240 241 244 244 245 245 242 240 241 242 242 242 245 248 246 245 251 256 258 260 260 257 258 261 262 262 263 262 259 260 262 264 269 270 270 269 261 259 257 248 240 234 240 268 267 259 270 274 264 252 248 250 252 247 241 237 233 229 226
239 240 241 242 242 242 242 243 243 240 237 235 234 232 229 225 217 201 197 237 240 245 242 232 232 236 236 234 234 236 239 240 241 242 241 240 239 239 240 241 239 241 246 249 248 249 252 256 258 258 257 258 259 262 262 261 258 257 258 260 264 270 270 269 260 249 256 254 247 241 227 228 267 265 230 254 269 267 256 252 251 246 238 236 236 232 230 228
238 238 239 240 240 240 242 243 243 241 238 235 230 225 221 216 205 188 221 236 238 245 234 221 225 230 230 233 235 235 235 237 238 237 236 237 238 237 235 236 236 237 244 248 250 252 252 253 254 256 258 258 259 261 262 260 257 254 254 253 256 263 263 260 240 223 245 257 249 240 225 221 235 241 220 253 265 266 259 251 247 240 234 231 232 231 230 228
236 237 238 239 239 239 239 241 243 241 237 232 225 220 213 202 197 207 226 235 240 244 229 219 223 224 226 232 234 235 234 235 237 235 235 235 236 238 237 236 235 231 238 246 248 252 255 255 254 257 258 257 258 257 258 257 252 247 240 225 220 233 236 236 219 212 235 247 243 220 211 219 235 244 242 248 260 263 253 242 237 233 231 227 225 224 221 218
236 237 237 237 238 238 237 238 238 236 232 226 219 215 206 190 208 222 223 225 228 234 227 218 219 219 218 221 223 226 230 233 235 233 234 234 235 238 239 239 238 234 237 246 244 246 255 260 258 256 256 256 254 250 251 252 247 241 230 207 202 216 240 243 231 234 240 239 230 206 204 229 245 253 254 247 250 252 240 232 228 226 224 218 212 209 210 219
234 235 236 236 236 236 236 236 235 232 225 219 214 207 197 198 226 228 224 223 224 233 233 204 199 206 208 214 220 222 223 227 231 231 232 232 232 235 237 237 237 236 236 237 239 235 240 259 259 255 254 253 252 251 250 251 252 250 239 221 216 219 232 250 245 244 251 233 205 189 195 229 230 248 259 250 242 236 230 227 224 220 210 202 203 206 215 234
233 233 235 235 235 234 234 234 233 229 218 210 208 201 196 210 227 228 225 222 223 226 223 194 189 200 205 211 216 217 218 223 227 227 230 232 233 235 237 237 236 234 231 227 231 233 234 249 255 255 255 252 253 252 242 238 247 252 238 222 223 225 232 253 273 269 290 330 215 190 206 230 224 236 244 233 229 223 220 223 220 210 201 202 210 214 228 245
234 235 235 235 235 234 233 232 230 225 214 203 199 198 207 221 227 228 225 222 224 224 215 197 193 199 206 211 213 213 217 221 223 225 229 232 235 237 237 238 238 236 234 229 227 228 232 248 253 253 257 255 253 252 238 229 233 234 223 220 225 226 227 244 276 271 271 291 250 209 227 240 240 247 235 214 217 212 209 218 216 205 204 212 218 224 241 248
231 233 234 235 236 234 232 232 229 222 211 202 198 203 218 228 229 229 228 223 226 227 221 217 216 209 211 214 214 215 216 220 223 225 229 231 235 239 238 239 241 240 241 237 234 237 238 248 255 253 254 253 252 253 242 233 229 222 220 227 231 232 230 233 266 273 249 267 250 216 226 235 231 240 235 224 223 218 214 216 211 207 210 218 224 233 245 242
234 230 229 231 235 236 230 224 219 215 207 201 203 214 226 231 231 230 229 225 227 229 226 227 229 224 220 220 221 220 217 220 223 223 226 231 236 242 239 240 242 242 243 240 235 240 243 248 255 251 250 253 253 247 236 233 231 228 229 229 224 226 229 223 229 260 244 250 262 234 229 233 228 227 235 234 230 229 224 216 211 211 214 221 228 234 237 238
236 228 226 226 229 233 228 216 209 208 203 199 203 220 231 234 234 231 227 226 227 228 225 228 231 229 227 226 227 227 222 222 227 225 226 232 238 243 242 240 241 242 243 241 237 239 240 242 250 248 246 249 241 230 227 232 231 227 227 228 222 223 226 218 219 234 247 245 264 255 234 235 233 229 238 248 246 237 226 216 214 214 215 221 227 228 232 245
236 227 227 226 225 228 226 217 208 202 201 203 210 224 232 233 233 231 229 229 229 228 228 231 232 231 232 228 226 229 227 226 231 231 231 235 239 244 244 240 239 240 239 238 239 239 235 235 243 243 238 233 230 233 239 242 237 229 225 224 224 224 222 228 232 230 235 250 262 259 251 250 237 225 235 250 247 231 221 214 212 212 216 221 222 225 241 257
234 225 227 229 225 226 225 218 211 203 201 208 217 226 232 231 229 229 229 229 230 233 234 233 232 231 234 232 227 229 227 227 231 233 234 237 239 242 245 244 244 242 235 228 232 233 229 232 238 239 236 235 239 247 250 244 240 239 236 231 228 226 221 224 242 229 226 235 243 251 274 268 245 214 217 229 222 214 211 208 209 212 215 218 220 233 254 258
230 224 231 237 229 225 222 218 215 209 205 209 215 221 226 228 228 228 229 229 229 232 235 235 234 232 233 237 237 234 231 230 231 233 235 238 240 243 247 249 249 246 241 235 237 239 234 232 236 238 242 246 248 250 247 242 237 235 236 233 229 228 223 217 222 224 220 230 239 247 270 266 251 232 218 220 222 217 202 198 206 212 213 215 227 249 257 255
231 227 232 239 235 228 223 219 216 212 210 215 217 217 221 225 227 228 230 230 230 231 233 235 236 234 232 236 237 234 234 235 235 236 238 239 242 244 246 248 248 247 244 238 238 236 228 227 231 238 248 250 251 250 248 245 238 230 233 235 229 228 227 223 227 233 226 228 231 236 256 256 251 245 236 227 225 214 197 196 203 208 211 219 242 258 254 251
234 232 232 234 237 235 226 219 215 213 215 220 219 216 219 224 226 228 230 232 232 232 232 234 236 236 234 234 234 235 237 238 239 240 240 239 241 243 244 246 246 246 245 243 243 238 228 226 225 229 253 254 249 249 242 238 237 236 240 240 235 232 228 225 229 235 245 241 227 222 251 255 252 247 235 220 212 202 193 195 201 205 214 235 256 258 251 251
234 236 236 233 234 238 234 226 220 217 219 222 220 217 219 224 226 227 229 231 233 233 234 236 237 236 235 234 236 238 238 238 239 240 240 241 243 244 244 245 245 245 246 250 252 248 242 237 230 222 222 229 232 231 233 239 240 239 239 239 237 235 229 227 229 230 242 245 234 230 244 255 255 239 217 207 205 200 194 194 201 213 230 248 255 251 251 256
232 234 236 229 218 219 230 232 226 222 221 222 221 220 220 223 227 228 227 229 232 233 235 237 237 234 232 233 234 235 235 236 238 239 242 244 245 245 244 242 242 242 244 248 250 247 243 240 238 235 234 238 244 246 250 254 248 243 245 243 240 238 233 228 227 229 235 241 240 238 239 248 251 229 210 208 204 199 199 201 214 232 243 249 247 246 251 255
229 232 236 232 216 206 211 223 226 227 227 223 223 224 222 223 228 229 229 231 232 231 232 233 233 231 232 233 233 233 235 236 238 241 243 245 245 246 243 240 239 239 241 244 245 244 240 237 240 240 240 246 251 253 256 259 257 256 257 251 244 240 234 225 225 233 234 231 244 245 240 240 242 234 225 221 209 207 215 223 236 248 251 249 248 249 252 255
227 230 234 236 230 216 210 213 218 226 230 226 224 226 225 224 228 229 231 234 234 231 231 230 230 232 235 236 233 232 233 235 239 242 243 241 241 242 240 238 238 238 239 239 240 241 239 239 243 242 242 249 252 251 252 254 257 259 258 253 249 243 235 229 231 237 234 227 242 248 243 240 242 241 239 233 226 230 238 245 251 253 253 253 254 256 257 259
229 230 231 232 234 230 222 218 215 221 228 225 223 225 226 228 233 234 235 234 231 230 230 230 233 234 235 235 233 231 231 232 235 239 240 238 237 239 239 238 238 237 236 236 239 242 239 239 244 242 243 251 251 248 248 248 252 255 252 252 251 246 243 240 241 244 239 237 244 247 246 248 247 244 244 242 242 245 247 250 253 253 255 259 262 262 261 261
229 231 231 230 232 233 230 227 222 221 226 224 222 225 228 231 235 239 238 234 230 230 229 231 236 238 237 236 233 232 235 237 238 240 240 236 235 239 240 240 240 239 236 236 238 241 239 242 245 241 241 250 250 247 246 246 248 251 251 251 251 249 246 242 244 246 240 241 245 243 245 250 245 239 244 244 243 243 244 249 252 257 263 267 267 265 263 264
230 234 235 234 236 234 232 231 228 229 231 225 222 226 230 232 237 240 239 237 236 234 231 234 240 241 240 238 235 235 240 242 243 245 244 240 243 248 248 248 250 247 242 240 240 239 238 241 245 240 236 247 250 248 245 246 247 248 249 250 247 244 242 238 241 242 238 240 243 238 240 245 243 240 242 240 238 240 244 249 253 261 269 272 270 266 264 267
231 234 237 239 242 240 237 234 232 234 237 234 228 228 230 235 240 239 237 238 239 237 236 238 242 240 238 238 237 241 245 246 245 247 247 246 249 253 253 254 256 253 249 247 243 240 238 237 239 236 231 243 251 250 245 244 243 243 247 250 247 243 242 241 242 243 241 241 239 237 242 246 245 245 244 241 240 245 249 254 258 263 269 272 270 266 266 268
Height
3153 3154 3155 3156 3156 3157 3158 3159 3160 3161 3162 3163 3164 3165 3165 3166 3167 3167 3168 3169 3169 3169 3170 3170 3171 3171 3172 3172 3172 3172 3172 3173 3173 3173 3173 3173 3173 3174 3174 3174 3174 3174 3175 3175 3175 3175 3175 3175 3175 3176 3176 3176 3177 3177 3177 3177 3178 3179 3179 3181 3181 3181 3181 3180 3181 3181 3181 3181 3180 3180 3181 3181 3181 3181 3182 3182 3182 3182 3182 3182 3182 3182 3183 3183 3183 3183 3182 3182
3152 3153 3154 3155 3156 3157 3158 3159 3160 3161 3162 3163 3164 3165 3165 3166 3167 3167 3168 3168 3169 3169 3170 3170 3170 3171 3171 3171 3172 3172 3172 3172 3172 3172 3172 3173 3173 3173 3173 3174 3174 3174 3174 3174 3174 3174 3175 3175 3175 3176 3176 3176 3176 3177 3177 3177 3178 3178 3179 3180 3180 3180 3179 3179 3179 3180 3180 3180 3180 3180 3180 3181 3180 3180 3181 3182 3181 3181 3181 3180 3181 3181 3181 3182 3182 3181 3181 3181
3152 3153 3154 3155 3156 3157 3158 3159 3160 3160 3161 3162 3163 3164 3165 3166 3166 3167 3168 3168 3168 3169 3169 3169 3170 3170 3170 3171 3171 3171 3171 3171 3171 3172 3172 3172 3172 3173 3173 3173 3173 3174 3174 3174 3174 3174 3174 3175 3175 3175 3176 3176 3176 3176 3177 3177 3177 3178 3179 3180 3179 3178 3178 3178 3178 3179 3179 3180 3180 3180 3180 3180 3180 3180 3180 3181 3181 3181 3181 3179 3179 3180 3180 3180 3180 3180 3180 3180
3151 3152 3154 3155 3156 3157 3158 3159 3159 3160 3161 3162 3163 3164 3164 3165 3166 3167 3167 3167 3168 3168 3168 3169 3169 3169 3170 3170 3170 3170 3171 3171 3171 3171 3171 3172 3172 3172 3173 3173 3173 3173 3174 3174 3174 3174 3174 3175 3175 3175 3176 3176 3176 3176 3176 3177 3177 3177 3178 3178 3178 3177 3178 3177 3177 3178 3178 3179 3179 3179 3179 3179 3179 3179 3179 3179 3180 3180 3179 3179 3179 3178 3179 3179 3179 3179 3179 3179
3150 3152 3153 3154 3155 3156 3157 3158 3159 3160 3160 3161 3162 3163 3164 3165 3165 3166 3167 3167 3167 3168 3168 3168 3168 3169 3169 3169 3169 3170 3170 3171 3170 3170 3171 3171 3171 3172 3172 3172 3173 3173 3173 3174 3174 3174 3174 3174 3175 3175 3176 3176 3176 3176 3176 3176 3177 3177 3177 3177 3177 3177 3177 3177 3177 3177 3177 3178 3178 3178 3178 3178 3178 3178 3178 3178 3179 3179 3178 3178 3178 3177 3177 3177 3177 3177 3177 3178
3149 3151 3152 3153 3154 3156 3156 3157 3158 3159 3160 3161 3161 3162 3163 3164 3164 3165 3166 3166 3166 3167 3167 3167 3167 3168 3168 3168 3169 3169 3170 3170 3169 3170 3170 3171 3171 3171 3172 3172 3172 3173 3173 3173 3173 3174 3174 3174 3175 3175 3175 3176 3176 3176 3176 3176 3177 3177 3176 3176 3176 3176 3176 3176 3176 3176 3176 3176 3176 3177 3177 3177 3177 3177 3177 3177 3177 3178 3177 3177 3177 3176 3176 3175 3175 3176 3176 3176
3148 3149 3150 3152 3153 3154 3155 3156 3157 3158 3159 3160 3160 3161 3162 3162 3163 3164 3164 3165 3165 3166 3166 3166 3167 3167 3167 3168 3168 3168 3169 3169 3169 3169 3170 3170 3171 3171 3171 3172 3172 3172 3173 3173 3173 3173 3174 3174 3174 3175 3175 3176 3175 3175 3175 3175 3176 3176 3175 3175 3175 3175 3175 3175 3175 3175 3176 3175 3175 3175 3175 3176 3176 3176 3176 3176 3176 3176 3176 3176 3175 3175 3174 3174 3174 3174 3175 3175
3147 3148 3149 3150 3151 3152 3154 3155 3156 3157 3158 3159 3159 3160 3161 3161 3162 3163 3163 3164 3164 3165 3165 3166 3166 3166 3166 3166 3167 3167 3168 3168 3168 3169 3169 3169 3170 3170 3171 3171 3171 3172 3172 3172 3173 3173 3173 3173 3174 3174 3175 3175 3175 3175 3175 3175 3175 3175 3174 3174 3175 3174 3174 3174 3174 3174 3174 3174 3174 3174 3174 3174 3174 3174 3175 3174 3175 3175 3174 3174 3174 3174 3173 3173 3173 3173 3173 3174
3146 3147 3147 3148 3149 3151 3152 3153 3154 3155 3156 3157 3158 3159 3159 3160 3161 3161 3162 3163 3163 3164 3164 3165 3165 3165 3165 3165 3166 3166 3166 3167 3167 3168 3168 3169 3169 3169 3170 3170 3171 3171 3171 3172 3172 3172 3172 3173 3173 3174 3174 3174 3174 3174 3174 3175 3174 3173 3174 3173 3173 3173 3173 3173 3173 3173 3173 3173 3173 3173 3173 3173 3172 3172 3172 3173 3173 3173 3173 3173 3172 3172 3172 3172 3172 3172 3172 3172
3144 3145 3146 3147 3148 3149 3150 3152 3153 3154 3155 3156 3157 3157 3158 3158 3159 3160 3161 3161 3162 3162 3163 3163 3164 3164 3164 3164 3165 3165 3165 3165 3166 3166 3167 3168 3168 3169 3169 3169 3170 3170 3171 3171 3171 3171 3172 3172 3172 3173 3173 3173 3173 3173 3173 3173 3173 3172 3172 3172 3172 3172 3172 3172 3172 3172 3172 3172 3172 3172 3172 3171 3171 3171 3170 3171 3172 3171 3171 3171 3171 3171 3171 3171 3171 3171 3171 3171
3142 3144 3144 3145 3146 3148 3149 3150 3151 3152 3153 3154 3155 3156 3156 3157 3158 3158 3159 3160 3160 3161 3162 3162 3162 3162 3163 3163 3163 3163 3163 3164 3164 3165 3166 3166 3167 3167 3168 3168 3169 3169 3169 3170 3170 3170 3170 3171 3171 3171 3171 3171 3171 3171 3172 3172 3172 3171 3171 3171 3171 3170 3170 3171 3171 3171 3171 3170 3170 3171 3170 3169 3169 3168 3168 3169 3170 3169 3169 3169 3169 3169 3169 3169 3169 3169 3169 3170
3141 3142 3143 3144 3145 3146 3147 3148 3149 3150 3151 3152 3153 3154 3155 3155 3156 3157 3158 3158 3159 3159 3160 3160 3161 3161 3161 3161 3162 3162 3162 3163 3163 3164 3164 3165 3165 3166 3166 3167 3167 3168 3168 3168 3169 3169 3169 3169 3170 3170 3170 3170 3170 3170 3170 3170 3170 3170 3170 3170 3169 3169 3169 3169 3169 3170 3169 3169 3169 3169 3168 3167 3166 3166 3167 3168 3168 3167 3167 3167 3167 3167 3167 3167 3167 3168 3168 3168
3138 3140 3141 3142 3143 3144 3145 3146 3147 3148 3149 3150 3151 3152 3153 3154 3154 3155 3156 3156 3157 3158 3158 3159 3159 3159 3159 3159 3160 3160 3160 3161 3161 3162 3163 3163 3164 3164 3165 3165 3166 3166 3167 3167 3167 3168 3168 3168 3168 3169 3169 3169 3169 3169 3169 3169 3169 3169 3169 3169 3168 3168 3168 3167 3167 3168 3167 3167 3167 3168 3167 3165 3165 3164 3165 3166 3165 3165 3165 3165 3165 3165 3165 3165 3165 3166 3166 3166
3136 3137 3138 3139 3141 3142 3143 3144 3145 3146 3147 3148 3149 3150 3151 3152 3152 3153 3154 3155 3155 3156 3156 3157 3157 3157 3157 3157 3158 3159 3159 3159 3160 3160 3161 3162 3162 3163 3163 3164 3164 3165 3165 3165 3166 3166 3166 3167 3167 3167 3167 3167 3167 3167 3167 3167 3168 3168 3167 3167 3167 3168 3167 3165 3165 3166 3165 3165 3166 3166 3165 3164 3164 3163 3163 3164 3164 3164 3163 3163 3163 3163 3163 3163 3163 3163 3164 3164
3133 3134 3136 3137 3138 3139 3141 3142 3143 3144 3145 3146 3147 3148 3148 3149 3150 3151 3152 3153 3153 3154 3154 3154 3155 3155 3155 3155 3156 3157 3157 3157 3158 3159 3159 3160 3160 3161 3162 3162 3163 3163 3164 3164 3164 3165 3165 3165 3165 3165 3165 3166 3165 3166 3166 3165 3165 3166 3166 3166 3165 3166 3166 3164 3164 3164 3163 3163 3164 3164 3164 3163 3162 3161 3161 3162 3162 3161 3161 3161 3161 3161 3161 3161 3161 3161 3161 3161
3130 3131 3133 3134 3136 3137 3138 3139 3141 3142 3143 3144 3145 3146 3146 3147 3148 3149 3150 3150 3151 3151 3152 3152 3153 3153 3152 3152 3153 3154 3155 3156 3156 3157 3157 3158 3159 3159 3160 3160 3161 3162 3162 3162 3162 3163 3163 3163 3164 3164 3163 3164 3164 3164 3165 3165 3164 3164 3164 3165 3165 3165 3165 3163 3162 3162 3162 3162 3162 3162 3162 3162 3161 3159 3160 3160 3159 3159 3159 3159 3159 3159 3159 3159 3159 3159 3159 3159
3126 3128 3130 3131 3133 3134 3135 3137 3138 3139 3140 3141 3142 3143 3144 3145 3146 3147 3147 3148 3148 3149 3149 3150 3151 3151 3149 3150 3151 3152 3153 3153 3154 3154 3155 3156 3156 3157 3158 3158 3159 3160 3160 3160 3160 3161 3161 3162 3162 3162 3161 3161 3162 3163 3164 3164 3164 3163 3162 3163 3163 3163 3163 3163 3161 3159 3160 3160 3160 3159 3159 3159 3159 3157 3157 3158 3157 3157 3157 3157 3157 3157 3157 3156 3157 3156 3156 3156
3123 3125 3127 3128 3130 3131 3133 3134 3136 3137 3138 3138 3140 3141 3142 3142 3143 3144 3144 3145 3146 3146 3147 3147 3148 3148 3147 3147 3149 3150 3151 3151 3151 3152 3153 3153 3154 3155 3156 3157 3157 3158 3158 3158 3158 3159 3159 3159 3160 3160 3159 3159 3160 3161 3161 3161 3162 3162 3162 3161 3161 3161 3161 3161 3160 3157 3158 3159 3158 3158 3156 3156 3157 3155 3154 3155 3155 3154 3154 3154 3154 3154 3154 3154 3154 3154 3153 3153
3119 3121 3123 3125 3127 3128 3130 3131 3133 3134 3135 3136 3137 3138 3139 3140 3140 3141 3141 3142 3142 3144 3144 3144 3146 3145 3144 3145 3146 3147 3148 3148 3149 3150 3151 3152 3152 3153 3154 3154 3155 3155 3155 3155 3155 3156 3157 3156 3157 3157 3156 3156 3158 3159 3159 3160 3160 3160 3160 3160 3159 3160 3159 3159 3158 3155 3156 3157 3156 3156 3154 3154 3155 3153 3151 3151 3152 3152 3151 3151 3150 3151 3151 3151 3151 3151 3151 3150
3115 3117 3119 3121 3124 3125 3127 3128 3130 3131 3132 3133 3134 3136 3136 3137 3137 3138 3138 3139 3140 3142 3142 3141 3142 3142 3142 3143 3144 3145 3146 3146 3147 3148 3149 3150 3150 3151 3151 3152 3153 3153 3153 3153 3153 3153 3155 3154 3153 3154 3155 3156 3156 3156 3157 3158 3158 3157 3157 3157 3157 3157 3157 3157 3155 3153 3155 3155 3153 3153 3152 3150 3151 3151 3150 3147 3146 3147 3148 3147 3147 3147 3147 3148 3148 3148 3148 3148
3111 3113 3115 3117 3120 3122 3123 3125 3127 3128 3129 3130 3131 3132 3133 3134 3135 3135 3135 3136 3138 3139 3138 3138 3139 3139 3138 3140 3142 3143 3143 3144 3145 3146 3146 3147 3148 3148 3149 3150 3150 3150 3150 3151 3150 3151 3152 3149 3149 3152 3154 3154 3154 3154 3155 3155 3155 3155 3155 3155 3155 3154 3154 3154 3152 3150 3152 3152 3150 3150 3148 3146 3146 3147 3148 3144 3141 3142 3144 3143 3143 3143 3143 3144 3145 3145 3145 3145
3107 3109 3111 3114 3116 3118 3120 3121 3123 3125 3125 3126 3128 3129 3130 3132 3133 3132 3133 3133 3133 3134 3135 3134 3134 3135 3135 3137 3138 3140 3141 3141 3142 3143 3144 3145 3146 3146 3146 3147 3148 3148 3148 3148 3148 3149 3148 3145 3147 3152 3151 3151 3152 3152 3153 3152 3152 3153 3152 3152 3152 3152 3152 3151 3149 3148 3150 3148 3147 3147 3144 3141 3141 3141 3143 3141 3138 3138 3139 3139 3139 3139 3140 3141 3141 3142 3142 3143
3103 3105 3108 3109 3112 3114 3116 3118 3119 3120 3122 3122 3124 3127 3128 3129 3130 3130 3131 3129 3128 3129 3130 3130 3131 3132 3132 3133 3135 3137 3137 3137 3139 3140 3142 3142 3143 3144 3144 3144 3146 3146 3145 3145 3146 3146 3144 3142 3146 3149 3148 3148 3149 3150 3150 3150 3150 3150 3149 3149 3149 3149 3150 3150 3147 3146 3146 3145 3144 3144 3139 3136 3136 3136 3137 3136 3134 3133 3134 3135 3135 3135 3136 3137 3138 3139 3139 3139
3098 3101 3103 3105 3108 3110 3111 3114 3114 3116 3118 3119 3122 3124 3125 3126 3127 3128 3128 3126 3123 3123 3125 3126 3127 3127 3127 3129 3132 3133 3133 3134 3135 3135 3138 3140 3140 3141 3141 3142 3144 3142 3141 3143 3144 3143 3142 3141 3143 3146 3146 3146 3146 3146 3147 3148 3147 3146 3146 3146 3146 3148 3148 3148 3147 3144 3143 3142 3141 3141 3137 3131 3130 3130 3130 3131 3129 3129 3130 3130 3130 3131 3132 3133 3134 3135 3136 3136
3094 3097 3098 3101 3104 3105 3108 3108 3109 3113 3115 3117 3120 3122 3123 3123 3124 3125 3126 3124 3118 3116 3119 3121 3122 3122 3123 3126 3127 3129 3130 3130 3130 3131 3135 3137 3137 3138 3138 3139 3139 3138 3138 3141 3141 3140 3139 3138 3140 3143 3143 3143 3144 3143 3144 3146 3145 3144 3143 3143 3144 3146 3146 3146 3145 3142 3142 3140 3137 3139 3137 3128 3126 3128 3127 3126 3127 3126 3126 3126 3126 3127 3128 3129 3131 3132 3132 3133
3090 3092 3094 3097 3099 3100 3102 3102 3106 3111 3112 3115 3117 3118 3120 3120 3123 3123 3124 3123 3113 3107 3112 3116 3117 3117 3117 3120 3122 3126 3126 3123 3125 3129 3131 3133 3133 3134 3135 3134 3135 3135 3136 3138 3138 3135 3134 3135 3137 3139 3139 3140 3141 3140 3142 3143 3143 3143 3141 3140 3141 3143 3144 3144 3143 3142 3141 3139 3136 3136 3136 3129 3125 3126 3126 3124 3124 3124 3124 3124 3123 3124 3125 3126 3127 3128 3129 3130
3086 3088 3090 3092 3094 3095 3097 3099 3104 3107 3108 3113 3114 3115 3117 3118 3121 3121 3124 3124 3108 3097 3104 3110 3110 3109 3110 3115 3119 3123 3120 3115 3121 3126 3126 3129 3130 3130 3131 3129 3130 3132 3134 3135 3134 3129 3129 3132 3134 3136 3137 3137 3137 3137 3139 3139 3140 3140 3139 3139 3139 3140 3141 3140 3141 3140 3138 3137 3135 3133 3136 3131 3121 3120 3123 3121 3122 3122 3121 3122 3122 3122 3123 3124 3124 3124 3125 3127
3081 3084 3085 3087 3089 3091 3093 3095 3099 3102 3105 3109 3109 3112 3114 3115 3118 3119 3124 3123 3101 3089 3096 3101 3102 3104 3106 3111 3114 3116 3114 3112 3118 3120 3121 3125 3126 3126 3127 3126 3127 3129 3130 3131 3129 3126 3126 3129 3131 3133 3135 3134 3133 3135 3135 3137 3137 3136 3136 3137 3137 3138 3138 3138 3138 3137 3136 3136 3132 3130 3134 3130 3117 3114 3118 3118 3117 3119 3118 3119 3120 3121 3122 3122 3122 3122 3123 3124
3076 3078 3081 3083 3085 3087 3089 3090 3093 3098 3101 3103 3105 3108 3110 3113 3115 3118 3124 3115 3093 3086 3091 3093 3097 3099 3101 3106 3108 3110 3109 3111 3114 3116 3119 3121 3120 3121 3122 3123 3125 3124 3125 3126 3126 3125 3124 3125 3128 3130 3131 3130 3130 3131 3132 3134 3134 3133 3134 3134 3135 3135 3135 3136 3136 3135 3136 3132 3125 3127 3131 3126 3114 3110 3115 3114 3113 3115 3116 3116 3117 3118 3119 3119 3119 3120 3121 3122
3070 3073 3075 3077 3079 3082 3083 3084 3089 3094 3096 3099 3102 3104 3107 3110 3111 3117 3119 3103 3086 3085 3087 3088 3093 3095 3097 3100 3102 3105 3106 3108 3110 3112 3115 3116 3116 3118 3117 3119 3122 3121 3120 3121 3121 3121 3121 3123 3125 3125 3126 3127 3127 3128 3129 3131 3131 3131 3132 3132 3133 3133 3133 3134 3133 3134 3134 3124 3118 3122 3125 3124 3115 3107 3110 3111 3109 3111 3113 3113 3113 3114 3115 3115 3117 3118 3119 3120
3064 3066 3069 3071 3073 3077 3079 3081 3086 3090 3092 3095 3098 3101 3103 3105 3109 3112 3104 3088 3084 3084 3081 3085 3089 3090 3094 3097 3099 3102 3103 3104 3106 3107 3109 3111 3112 3113 3113 3115 3117 3118 3118 3116 3116 3117 3118 3120 3120 3120 3122 3123 3124 3125 3126 3127 3128 3129 3130 3131 3133 3132 3131 3132 3131 3133 3130 3117 3113 3117 3120 3122 3115 3104 3107 3109 3107 3109 3109 3109 3110 3111 3112 3113 3115 3116 3117 3118
3058 3061 3063 3065 3068 3071 3074 3077 3082 3086 3088 3091 3094 3095 3098 3102 3104 3099 3088 3083 3085 3080 3076 3081 3084 3087 3092 3094 3096 3098 3099 3100 3101 3103 3105 3107 3108 3107 3108 3110 3111 3114 3114 3112 3113 3114 3113 3114 3116 3117 3118 3120 3122 3123 3123 3123 3124 3126 3127 3130 3132 3131 3130 3129 3127 3127 3122 3113 3111 3114 3116 3116 3106 3100 3105 3106 3104 3106 3106 3106 3107 3108 3109 3110 3112 3114 3115 3116
3053 3055 3057 3059 3062 3064 3067 3072 3077 3081 3082 3085 3089 3090 3094 3096 3090 3082 3079 3081 3081 3075 3074 3079 3081 3085 3090 3090 3092 3094 3096 3098 3098 3100 3101 3103 3104 3103 3105 3107 3107 3110 3111 3110 3111 3112 3111 3111 3112 3113 3113 3115 3117 3118 3118 3118 3119 3121 3122 3125 3127 3127 3128 3125 3121 3119 3115 3111 3110 3112 3115 3109 3100 3097 3101 3102 3102 3103 3104 3105 3105 3106 3107 3108 3110 3112 3113 3114
3047 3049 3050 3053 3056 3058 3062 3066 3070 3074 3077 3080 3083 3084 3089 3085 3074 3071 3074 3076 3075 3073 3074 3076 3078 3083 3085 3085 3088 3091 3093 3094 3094 3097 3097 3098 3099 3098 3100 3102 3103 3105 3108 3110 3109 3109 3110 3107 3106 3108 3108 3110 3112 3113 3115 3115 3116 3116 3119 3122 3122 3121 3122 3118 3115 3113 3110 3108 3108 3111 3110 3103 3096 3095 3095 3097 3099 3100 3102 3103 3103 3104 3106 3107 3108 3110 3111 3111
3041 3042 3045 3047 3049 3052 3056 3060 3063 3067 3069 3072 3074 3076 3077 3072 3063 3063 3067 3069 3071 3071 3072 3075 3077 3080 3081 3082 3084 3087 3089 3089 3090 3093 3093 3094 3094 3093 3095 3096 3098 3101 3104 3106 3106 3106 3106 3103 3103 3105 3105 3107 3109 3110 3113 3114 3113 3113 3116 3119 3117 3116 3118 3115 3111 3110 3109 3108 3105 3105 3102 3095 3093 3093 3093 3095 3095 3097 3100 3100 3102 3103 3104 3105 3106 3107 3108 3109
3036 3037 3039 3039 3042 3047 3050 3052 3056 3059 3061 3064 3065 3063 3060 3056 3053 3055 3060 3066 3068 3068 3071 3074 3075 3077 3078 3078 3080 3083 3085 3086 3088 3089 3089 3090 3089 3089 3091 3091 3094 3097 3098 3101 3101 3102 3103 3101 3100 3102 3103 3104 3106 3107 3109 3110 3110 3110 3111 3112 3110 3112 3115 3114 3110 3108 3110 3108 3099 3095 3094 3091 3092 3091 3090 3093 3093 3094 3097 3098 3100 3101 3101 3103 3104 3105 3106 3106
3029 3031 3032 3031 3035 3040 3044 3046 3048 3050 3054 3056 3053 3051 3049 3047 3048 3052 3058 3063 3063 3063 3069 3072 3072 3073 3075 3075 3076 3079 3082 3084 3085 3086 3086 3086 3085 3083 3085 3088 3090 3092 3094 3098 3099 3098 3100 3098 3097 3099 3100 3100 3103 3104 3104 3105 3106 3107 3107 3107 3108 3112 3113 3113 3112 3108 3108 3104 3092 3088 3089 3089 3089 3086 3085 3090 3092 3092 3095 3096 3097 3098 3099 3101 3102 3102 3103 3104
3023 3026 3026 3025 3030 3035 3039 3042 3041 3041 3046 3048 3047 3046 3045 3040 3042 3049 3055 3058 3058 3061 3066 3068 3068 3070 3071 3073 3074 3076 3080 3080 3080 3081 3082 3082 3080 3078 3081 3084 3087 3089 3092 3096 3096 3095 3098 3097 3094 3095 3096 3097 3100 3100 3100 3101 3102 3103 3103 3103 3107 3109 3108 3110 3111 3106 3104 3100 3089 3085 3085 3083 3082 3081 3081 3085 3088 3090 3091 3093 3094 3095 3097 3098 3099 3100 3101 3102
3019 3019 3017 3020 3026 3030 3035 3038 3036 3034 3034 3037 3040 3038 3033 3030 3036 3045 3051 3052 3053 3057 3060 3061 3064 3067 3067 3069 3070 3071 3076 3076 3075 3077 3078 3077 3076 3074 3076 3081 3084 3086 3089 3092 3093 3092 3094 3095 3091 3090 3093 3095 3095 3094 3094 3095 3097 3099 3099 3101 3103 3104 3104 3105 3104 3101 3100 3096 3088 3084 3079 3074 3074 3076 3078 3080 3083 3086 3087 3089 3091 3092 3094 3095 3096 3098 3099 3100
3014 3011 3009 3015 3022 3025 3031 3034 3031 3027 3023 3022 3025 3023 3020 3024 3032 3039 3043 3046 3048 3051 3054 3057 3061 3063 3062 3065 3066 3066 3071 3072 3071 3073 3074 3073 3072 3071 3072 3078 3081 3084 3087 3089 3089 3089 3090 3092 3089 3087 3089 3089 3087 3087 3088 3089 3091 3092 3094 3095 3097 3098 3100 3101 3098 3096 3096 3092 3087 3082 3074 3068 3069 3072 3074 3076 3079 3082 3083 3085 3088 3090 3091 3092 3093 3095 3096 3097
3009 3006 3003 3011 3018 3020 3025 3027 3023 3021 3018 3016 3014 3014 3016 3021 3028 3033 3035 3040 3044 3046 3049 3053 3056 3058 3058 3060 3061 3061 3066 3069 3068 3068 3069 3067 3067 3067 3069 3073 3078 3081 3083 3083 3084 3084 3085 3087 3086 3085 3083 3082 3082 3082 3085 3086 3086 3086 3087 3087 3089 3092 3096 3097 3093 3090 3091 3088 3084 3081 3072 3065 3067 3070 3071 3074 3076 3078 3081 3084 3086 3087 3088 3089 3091 3092 3093 3094
3003 3002 3001 3006 3012 3015 3017 3016 3014 3016 3015 3010 3008 3009 3012 3017 3024 3027 3029 3035 3040 3042 3044 3047 3050 3054 3054 3054 3056 3058 3060 3063 3063 3062 3062 3062 3062 3064 3067 3071 3075 3077 3078 3079 3080 3080 3082 3082 3083 3081 3078 3078 3079 3079 3081 3082 3082 3083 3084 3084 3087 3088 3088 3090 3086 3083 3085 3083 3081 3082 3073 3061 3063 3068 3069 3071 3073 3075 3079 3081 3083 3084 3085 3086 3088 3089 3090 3091
2996 2998 3000 3001 3005 3010 3010 3008 3009 3011 3009 3006 3007 3008 3011 3015 3019 3021 3023 3029 3033 3036 3038 3040 3042 3047 3050 3051 3052 3053 3054 3057 3058 3056 3057 3058 3060 3062 3065 3068 3071 3072 3074 3074 3075 3077 3078 3078 3079 3079 3076 3075 3075 3075 3077 3079 3080 3079 3078 3079 3081 3079 3079 3083 3082 3081 3082 3078 3078 3081 3071 3058 3059 3064 3067 3069 3070 3073 3075 3077 3079 3080 3081 3083 3085 3086 3087 3087
2991 2994 2996 2996 2998 3001 2999 2997 3001 3003 3002 3004 3006 3007 3009 3012 3013 3014 3017 3020 3024 3029 3032 3033 3035 3041 3045 3048 3048 3048 3050 3052 3052 3051 3053 3055 3056 3058 3061 3064 3066 3067 3068 3068 3069 3072 3073 3073 3076 3078 3077 3074 3072 3072 3072 3072 3074 3072 3070 3073 3073 3073 3078 3080 3079 3081 3077 3071 3075 3076 3064 3056 3059 3061 3063 3066 3067 3069 3071 3073 3075 3076 3078 3080 3081 3081 3082 3083
2988 2989 2990 2992 2993 2991 2988 2988 2992 2994 2995 2998 3000 3003 3006 3006 3006 3008 3012 3014 3019 3024 3026 3027 3031 3036 3040 3043 3043 3043 3044 3044 3046 3048 3049 3050 3051 3053 3056 3060 3061 3062 3064 3065 3066 3068 3067 3067 3069 3071 3070 3066 3062 3060 3060 3061 3064 3064 3064 3067 3067 3069 3073 3072 3075 3078 3069 3065 3071 3067 3058 3057 3058 3057 3060 3062 3064 3066 3068 3069 3071 3073 3075 3076 3076 3077 3078 3078
2983 2982 2983 2988 2989 2986 2984 2987 2988 2989 2992 2995 2996 2998 3000 3001 3001 3005 3008 3012 3015 3018 3021 3023 3027 3032 3034 3036 3036 3036 3036 3038 3042 3044 3044 3045 3045 3047 3051 3054 3056 3058 3060 3061 3062 3063 3061 3060 3059 3059 3057 3053 3050 3052 3054 3055 3057 3057 3058 3060 3061 3062 3065 3068 3071 3067 3061 3064 3064 3055 3055 3060 3056 3055 3058 3059 3061 3063 3064 3067 3069 3070 3070 3071 3071 3072 3073 3074
2977 2975 2976 2982 2984 2981 2980 2983 2984 2985 2987 2990 2990 2991 2993 2995 2999 3002 3004 3006 3009 3013 3016 3019 3022 3024 3024 3024 3026 3028 3030 3035 3037 3037 3038 3039 3040 3042 3046 3049 3051 3054 3055 3056 3058 3057 3054 3052 3050 3050 3049 3046 3048 3052 3054 3052 3051 3051 3053 3055 3055 3057 3060 3063 3059 3053 3058 3063 3051 3043 3055 3059 3052 3054 3056 3055 3059 3061 3062 3064 3065 3065 3066 3066 3067 3068 3068 3069
2970 2970 2971 2975 2977 2976 2976 2977 2979 2980 2981 2983 2985 2987 2989 2992 2994 2996 2997 3000 3003 3008 3011 3013 3013 3012 3012 3015 3020 3022 3026 3031 3030 3028 3030 3033 3035 3037 3040 3044 3046 3048 3049 3050 3051 3050 3047 3045 3044 3046 3045 3043 3046 3050 3050 3048 3047 3048 3049 3049 3050 3052 3052 3050 3046 3046 3055 3055 3041 3040 3051 3050 3048 3052 3052 3052 3056 3058 3059 3061 3061 3061 3063 3063 3063 3064 3064 3065
2965 2965 2967 2969 2969 2972 2974 2974 2975 2976 2976 2979 2981 2982 2984 2986 2987 2989 2992 2996 2998 3001 3004 3004 3002 3002 3006 3011 3015 3016 3019 3022 3020 3018 3021 3027 3029 3030 3034 3037 3038 3040 3042 3043 3044 3045 3042 3038 3039 3042 3041 3038 3040 3043 3044 3044 3044 3043 3043 3044 3044 3044 3041 3041 3042 3045 3049 3044 3038 3043 3046 3043 3045 3048 3048 3052 3054 3054 3056 3057 3057 3058 3059 3059 3060 3060 3060 3061
2960 2960 2962 2964 2964 2967 2970 2971 2972 2972 2973 2975 2975 2975 2978 2980 2980 2983 2987 2990 2991 2993 2996 2996 2994 2998 3002 3005 3008 3010 3011 3012 3010 3011 3017 3022 3023 3023 3026 3028 3030 3033 3036 3037 3039 3040 3037 3033 3035 3039 3037 3032 3032 3035 3038 3039 3038 3038 3038 3039 3037 3034 3034 3037 3038 3040 3042 3037 3036 3043 3043 3039 3041 3044 3046 3050 3050 3050 3052 3052 3053 3055 3055 3056 3057 3056 3057 3057
2956 2957 2958 2959 2959 2961 2964 2965 2967 2967 2967 2969 2969 2970 2973 2973 2975 2978 2981 2983 2985 2988 2990 2991 2992 2995 2998 3001 3003 3004 3004 3005 3006 3009 3015 3017 3017 3018 3020 3022 3024 3027 3029 3031 3032 3032 3032 3030 3031 3035 3033 3025 3023 3029 3032 3033 3033 3034 3031 3026 3024 3025 3027 3030 3030 3032 3033 3030 3033 3039 3035 3031 3034 3039 3042 3045 3045 3046 3048 3048 3050 3051 3051 3053 3053 3053 3053 3053
2952 2953 2955 2955 2955 2956 2958 2960 2962 2961 2961 2964 2966 2967 2969 2969 2972 2977 2978 2979 2982 2984 2987 2988 2990 2993 2994 2994 2996 2997 2999 3003 3006 3009 3012 3013 3013 3015 3015 3017 3018 3019 3021 3024 3024 3023 3025 3025 3025 3027 3026 3018 3018 3024 3027 3029 3030 3026 3015 3009 3012 3018 3021 3022 3022 3023 3025 3026 3029 3029 3025 3026 3031 3034 3036 3039 3040 3042 3043 3044 3046 3047 3047 3048 3048 3049 3050 3049